| time (UTC) | temp C | wind direction | speed KPH | gust KPH | rain 1hr cm | rain 24hr cm | rain mn cm | humidity % | barometer mb |
| 20260507105703 | 20 | 109 | 16.1 | 16.1 | 0.00 | 0.00 | 0.00 | 87 | 1010.5 |
| 20260507105104 | 21 | 96 | 9.7 | 16.1 | 0.00 | 0.00 | 0.00 | 87 | 1010.5 |
| 20260507104504 | 20 | 90 | 16.1 | 16.1 | 0.00 | 0.00 | 0.00 | 88 | 1010.5 |
| 20260507103904 | 20 | 112 | 16.1 | 16.1 | 0.00 | 0.00 | 0.00 | 88 | 1010.5 |
| 20260507103604 | 20 | 125 | 16.1 | 16.1 | 0.00 | 0.00 | 0.00 | 88 | 1010.5 |
| 20260507103303 | 20 | 135 | 16.1 | 16.1 | 0.00 | 0.00 | 0.00 | 86 | 1010.5 |
| 20260507103004 | 21 | 131 | 12.9 | 14.5 | 0.00 | 0.00 | 0.00 | 87 | 1010.5 |
| 20260507102704 | 20 | 135 | 12.9 | 14.5 | 0.00 | 0.00 | 0.00 | 86 | 1010.5 |
| 20260507102403 | 20 | 141 | 14.5 | 14.5 | 0.00 | 0.00 | 0.00 | 86 | 1010.5 |
| 20260507102104 | 20 | 152 | 12.9 | 12.9 | 0.00 | 0.00 | 0.00 | 87 | 1010.5 |
| 20260507101804 | 20 | 158 | 9.7 | 9.7 | 0.00 | 0.00 | 0.00 | 87 | 1010.5 |
| 20260507101504 | 20 | 145 | 9.7 | 9.7 | 0.00 | 0.00 | 0.00 | 88 | 1010.5 |
| 20260507101204 | 20 | 131 | 9.7 | 9.7 | 0.00 | 0.00 | 0.00 | 88 | 1010.5 |
| 20260507100604 | 20 | 105 | 6.4 | 14.5 | 0.00 | 0.00 | 0.00 | 89 | 1010.5 |
| 20260507100303 | 20 | 100 | 6.4 | 14.5 | 0.00 | 0.00 | 0.00 | 87 | 1010.5 |
| 20260507100005 | 20 | 94 | 9.7 | 17.7 | 0.00 | 0.00 | 0.00 | 87 | 1010.5 |
| 20260507095404 | 20 | 79 | 9.7 | 17.7 | 0.00 | 0.00 | 0.00 | 86 | 1010.5 |
| 20260507094504 | 20 | 121 | 14.5 | 17.7 | 0.00 | 0.00 | 0.00 | 87 | 1010.5 |
| 20260507094203 | 20 | 123 | 12.9 | 16.1 | 0.00 | 0.00 | 0.00 | 86 | 1010.5 |
| 20260507093604 | 20 | 118 | 16.1 | 16.1 | 0.00 | 0.00 | 0.00 | 87 | 1010.5 |
| 20260507093004 | 20 | 95 | 14.5 | 17.7 | 0.00 | 0.00 | 0.00 | 86 | 1010.5 |
| 20260507092703 | 20 | 120 | 6.4 | 20.9 | 0.00 | 0.00 | 0.00 | 86 | 1010.5 |
| 20260507092403 | 20 | 106 | 17.7 | 20.9 | 0.00 | 0.00 | 0.00 | 86 | 1010.5 |
| 20260507092104 | 20 | 106 | 6.4 | 20.9 | 0.00 | 0.00 | 0.00 | 87 | 1010.5 |
| 20260507091804 | 20 | 90 | 12.9 | 20.9 | 0.00 | 0.00 | 0.00 | 87 | 1010.5 |
| 20260507091504 | 19 | 90 | 12.9 | 25.7 | 0.00 | 0.00 | 0.00 | 89 | 1010.5 |
| 20260507091203 | 20 | 90 | 8.0 | 25.7 | 0.00 | 0.00 | 0.00 | 89 | 1010.5 |
| 20260507090604 | 20 | 87 | 25.7 | 25.7 | 0.00 | 0.00 | 0.00 | 88 | 1010.5 |
| 20260507090304 | 20 | 100 | 17.7 | 19.3 | 0.00 | 0.00 | 0.00 | 89 | 1010.5 |
| 20260507090005 | 20 | 111 | 19.3 | 19.3 | 0.00 | 0.00 | 0.00 | 89 | 1010.5 |
| 20260507085404 | 20 | 92 | 16.1 | 17.7 | 0.00 | 0.00 | 0.00 | 89 | 1010.5 |
| 20260507085105 | 20 | 81 | 17.7 | 17.7 | 0.00 | 0.00 | 0.00 | 89 | 1010.5 |
| 20260507084804 | 20 | 78 | 6.4 | 17.7 | 0.00 | 0.00 | 0.00 | 89 | 1009.5 |
| 20260507084504 | 20 | 66 | 17.7 | 17.7 | 0.00 | 0.00 | 0.00 | 89 | 1009.5 |
| 20260507084204 | 20 | 60 | 17.7 | 17.7 | 0.00 | 0.00 | 0.00 | 89 | 1009.5 |
| 20260507083904 | 20 | 45 | 9.7 | 9.7 | 0.00 | 0.00 | 0.00 | 89 | 1009.5 |
| 20260507083604 | 20 | 51 | 9.7 | 11.3 | 0.00 | 0.00 | 0.00 | 89 | 1009.5 |
| 20260507083304 | 20 | 83 | 9.7 | 11.3 | 0.00 | 0.00 | 0.00 | 88 | 1010.5 |
| 20260507083004 | 20 | 116 | 9.7 | 11.3 | 0.00 | 0.00 | 0.00 | 89 | 1010.5 |
| 20260507082704 | 20 | 140 | 11.3 | 11.3 | 0.00 | 0.00 | 0.00 | 90 | 1010.5 |
| 20260507082404 | 20 | 135 | 9.7 | 9.7 | 0.00 | 0.00 | 0.00 | 90 | 1010.5 |
| 20260507082104 | 20 | 135 | 8.0 | 9.7 | 0.00 | 0.00 | 0.00 | 90 | 1010.5 |
| 20260507081804 | 20 | 135 | 8.0 | 9.7 | 0.00 | 0.00 | 0.00 | 89 | 1009.5 |
| 20260507081504 | 20 | 135 | 8.0 | 9.7 | 0.00 | 0.00 | 0.00 | 89 | 1009.5 |
| 20260507081204 | 20 | 130 | 9.7 | 9.7 | 0.00 | 0.00 | 0.00 | 88 | 1009.5 |
| 20260507080904 | 20 | 111 | 9.7 | 9.7 | 0.00 | 0.00 | 0.00 | 89 | 1009.5 |
| 20260507080603 | 20 | 95 | 9.7 | 9.7 | 0.00 | 0.00 | 0.00 | 90 | 1009.5 |
| 20260507080303 | 20 | 83 | 8.0 | 9.7 | 0.00 | 0.00 | 0.00 | 90 | 1010.5 |
| 20260507080004 | 20 | 85 | 8.0 | 9.7 | 0.00 | 0.00 | 0.00 | 90 | 1010.5 |
| 20260507075703 | 20 | 86 | 9.7 | 9.7 | 0.00 | 0.00 | 0.00 | 90 | 1010.5 |
| 20260507075404 | 20 | 85 | 9.7 | 9.7 | 0.00 | 0.00 | 0.00 | 90 | 1010.5 |
| 20260507075104 | 20 | 82 | 4.8 | 9.7 | 0.00 | 0.00 | 0.00 | 90 | 1010.5 |
| 20260507074804 | 20 | 71 | 4.8 | 9.7 | 0.00 | 0.00 | 0.00 | 90 | 1010.5 |
| 20260507073904 | 19 | 52 | 9.7 | 12.9 | 0.00 | 0.00 | 0.00 | 92 | 1010.5 |
| 20260507073604 | 18 | 85 | 12.9 | 12.9 | 0.00 | 0.00 | 0.00 | 91 | 1010.5 |
| 20260507073303 | 19 | 96 | 3.2 | 6.4 | 0.00 | 0.00 | 0.00 | 91 | 1010.5 |
| 20260507073003 | 19 | 82 | 3.2 | 6.4 | 0.00 | 0.00 | 0.00 | 91 | 1010.5 |
| 20260507072704 | 19 | 75 | 6.4 | 12.9 | 0.00 | 0.00 | 0.00 | 91 | 1010.5 |
| 20260507072403 | 19 | 70 | 3.2 | 12.9 | 0.00 | 0.00 | 0.00 | 91 | 1010.5 |
| 20260507072103 | 19 | 72 | 4.8 | 12.9 | 0.00 | 0.00 | 0.00 | 91 | 1010.5 |
| 20260507071804 | 19 | 75 | 12.9 | 12.9 | 0.00 | 0.00 | 0.00 | 91 | 1010.5 |
| 20260507071203 | 19 | 55 | 8.0 | 8.0 | 0.00 | 0.00 | 0.00 | 92 | 1010.5 |
| 20260507070604 | 19 | 21 | 4.8 | 6.4 | 0.00 | 0.00 | 0.00 | 93 | 1010.5 |
| 20260507070304 | 18 | 37 | 6.4 | 9.7 | 0.00 | 0.00 | 0.00 | 93 | 1010.5 |
| 20260507070008 | 18 | 46 | 4.8 | 9.7 | 0.00 | 0.00 | 0.00 | 94 | 1010.5 |
| 20260507065703 | 18 | 56 | 6.4 | 9.7 | 0.00 | 0.00 | 0.00 | 94 | 1010.5 |
| 20260507065404 | 18 | 50 | 9.7 | 9.7 | 0.00 | 0.00 | 0.00 | 95 | 1010.5 |
| 20260507065104 | 18 | 48 | 4.8 | 6.4 | 0.00 | 0.00 | 0.00 | 96 | 1010.5 |
| 20260507064803 | 18 | 45 | 4.8 | 6.4 | 0.00 | 0.00 | 0.00 | 96 | 1010.5 |
| 20260507064503 | 17 | 33 | 4.8 | 6.4 | 0.00 | 0.00 | 0.00 | 97 | 1010.5 |
| 20260507064204 | 17 | 26 | 6.4 | 6.4 | 0.00 | 0.00 | 0.00 | 97 | 1010.5 |
| 20260507063904 | 17 | 10 | 6.4 | 6.4 | 0.00 | 0.00 | 0.00 | 97 | 1010.5 |
| 20260507063604 | 17 | 12 | 3.2 | 4.8 | 0.00 | 0.00 | 0.00 | 98 | 1010.5 |
| 20260507063303 | 16 | 16 | 3.2 | 6.4 | 0.00 | 0.00 | 0.00 | 98 | 1009.5 |
| 20260507063003 | 16 | 13 | 3.2 | 6.4 | 0.00 | 0.00 | 0.00 | 98 | 1009.5 |
| 20260507062704 | 16 | 22 | 3.2 | 6.4 | 0.00 | 0.00 | 0.00 | 98 | 1009.5 |
| 20260507062404 | 15 | 27 | 4.8 | 6.4 | 0.00 | 0.00 | 0.00 | 98 | 1009.5 |
| 20260507062103 | 15 | 33 | 1.6 | 4.8 | 0.00 | 0.00 | 0.00 | 98 | 1009.5 |
| 20260507061504 | 15 | 32 | 4.8 | 4.8 | 0.00 | 0.00 | 0.00 | 98 | 1009.5 |
| 20260507061204 | 15 | 24 | 4.8 | 4.8 | 0.00 | 0.00 | 0.00 | 98 | 1009.5 |
| 20260507060904 | 15 | 37 | 4.8 | 4.8 | 0.00 | 0.00 | 0.00 | 98 | 1009.5 |
| 20260507060303 | 15 | 24 | 1.6 | 6.4 | 0.00 | 0.00 | 0.00 | 98 | 1009.5 |
| 20260507060004 | 14 | 30 | 4.8 | 6.4 | 0.00 | 0.00 | 0.00 | 98 | 1009.5 |
| 20260507055703 | 13 | 38 | 3.2 | 6.4 | 0.00 | 0.00 | 0.00 | 98 | 1009.5 |
| 20260507055103 | 13 | 49 | 6.4 | 6.4 | 0.00 | 0.00 | 0.00 | 98 | 1009.5 |
| 20260507054803 | 13 | 49 | 4.8 | 6.4 | 0.00 | 0.00 | 0.00 | 98 | 1009.5 |
| 20260507054204 | 13 | 38 | 3.2 | 4.8 | 0.00 | 0.00 | 0.00 | 98 | 1009.5 |
| 20260507053903 | 13 | 32 | 4.8 | 6.4 | 0.00 | 0.00 | 0.00 | 98 | 1009.5 |
| 20260507053303 | 13 | 23 | 3.2 | 6.4 | 0.00 | 0.00 | 0.00 | 98 | 1009.5 |
| 20260507052704 | 13 | 26 | 4.8 | 6.4 | 0.00 | 0.00 | 0.00 | 98 | 1009.5 |
| 20260507052404 | 13 | 33 | 4.8 | 6.4 | 0.00 | 0.00 | 0.00 | 98 | 1009.5 |
| 20260507052104 | 13 | 34 | 1.6 | 6.4 | 0.00 | 0.00 | 0.00 | 98 | 1009.5 |
| 20260507051804 | 13 | 38 | 6.4 | 6.4 | 0.00 | 0.00 | 0.00 | 98 | 1009.5 |
| 20260507051504 | 13 | 38 | 4.8 | 6.4 | 0.00 | 0.00 | 0.00 | 98 | 1009.5 |
| 20260507050904 | 13 | 71 | 1.6 | 3.2 | 0.00 | 0.00 | 0.00 | 98 | 1009.5 |
| 20260507050604 | 12 | 72 | 1.6 | 3.2 | 0.00 | 0.00 | 0.00 | 98 | 1009.5 |
| 20260507050304 | 12 | 90 | 0.0 | 3.2 | 0.00 | 0.00 | 0.00 | 98 | 1008.5 |
| 20260507050003 | 12 | 90 | 3.2 | 3.2 | 0.00 | 0.00 | 0.00 | 98 | 1008.5 |
| 20260507045704 | 12 | 337 | 0.0 | 3.2 | 0.00 | 0.00 | 0.00 | 98 | 1008.5 |
| 20260507045403 | 12 | 341 | 0.0 | 3.2 | 0.00 | 0.00 | 0.00 | 98 | 1008.5 |
| 20260507045104 | 12 | 343 | 0.0 | 3.2 | 0.00 | 0.00 | 0.00 | 98 | 1008.5 |
| 20260507044803 | 12 | 346 | 3.2 | 3.2 | 0.00 | 0.00 | 0.00 | 98 | 1008.5 |
| 20260507044503 | 12 | 350 | 3.2 | 3.2 | 0.00 | 0.00 | 0.00 | 98 | 1008.5 |
| 20260507043904 | 12 | 350 | 1.6 | 3.2 | 0.00 | 0.00 | 0.00 | 98 | 1008.5 |
| 20260507043603 | 12 | 346 | 3.2 | 3.2 | 0.00 | 0.00 | 0.00 | 98 | 1008.5 |
| 20260507043304 | 12 | 337 | 0.0 | 1.6 | 0.00 | 0.00 | 0.00 | 98 | 1009.5 |
| 20260507042404 | 12 | 340 | 0.0 | 3.2 | 0.00 | 0.00 | 0.00 | 98 | 1009.5 |
| 20260507042103 | 12 | 340 | 3.2 | 3.2 | 0.00 | 0.00 | 0.00 | 98 | 1009.5 |
| 20260507041804 | 12 | 350 | 3.2 | 3.2 | 0.00 | 0.00 | 0.00 | 98 | 1008.5 |
| 20260507041503 | 12 | 1 | 0.0 | 1.6 | 0.00 | 0.00 | 0.00 | 98 | 1008.5 |
| 20260507041204 | 12 | 1 | 1.6 | 3.2 | 0.00 | 0.00 | 0.00 | 98 | 1008.5 |
| 20260507040903 | 12 | 1 | 1.6 | 3.2 | 0.00 | 0.00 | 0.00 | 98 | 1008.5 |
| 20260507040604 | 12 | 3 | 1.6 | 3.2 | 0.00 | 0.00 | 0.00 | 98 | 1008.5 |
| 20260507040303 | 12 | 11 | 3.2 | 3.2 | 0.00 | 0.00 | 0.00 | 98 | 1009.5 |
| 20260507040004 | 12 | 13 | 1.6 | 3.2 | 0.00 | 0.00 | 0.00 | 98 | 1009.5 |
| 20260507035704 | 12 | 7 | 1.6 | 3.2 | 0.00 | 0.00 | 0.00 | 98 | 1009.5 |
| 20260507035403 | 12 | 357 | 3.2 | 3.2 | 0.00 | 0.00 | 0.00 | 98 | 1009.5 |
| 20260507035104 | 12 | 346 | 0.0 | 4.8 | 0.00 | 0.00 | 0.00 | 98 | 1009.5 |
| 20260507034804 | 12 | 349 | 3.2 | 4.8 | 0.00 | 0.00 | 0.00 | 98 | 1009.5 |
| 20260507034203 | 12 | 348 | 4.8 | 4.8 | 0.00 | 0.00 | 0.00 | 98 | 1009.5 |
| 20260507033903 | 12 | 352 | 3.2 | 4.8 | 0.00 | 0.00 | 0.00 | 98 | 1009.5 |
| 20260507033304 | 12 | 348 | 3.2 | 4.8 | 0.00 | 0.00 | 0.00 | 98 | 1008.5 |
| 20260507033003 | 12 | 342 | 3.2 | 3.2 | 0.00 | 0.00 | 0.00 | 98 | 1008.5 |
| 20260507032703 | 12 | 338 | 1.6 | 3.2 | 0.00 | 0.00 | 0.00 | 98 | 1008.5 |
| 20260507032404 | 12 | 335 | 3.2 | 3.2 | 0.00 | 0.00 | 0.00 | 98 | 1008.5 |
| 20260507031504 | 12 | 346 | 3.2 | 3.2 | 0.00 | 0.00 | 0.00 | 98 | 1009.5 |
| 20260507031204 | 12 | 348 | 1.6 | 3.2 | 0.00 | 0.00 | 0.00 | 98 | 1009.5 |
| 20260507030903 | 12 | 354 | 3.2 | 3.2 | 0.00 | 0.00 | 0.00 | 98 | 1009.5 |
| 20260507030603 | 12 | 352 | 1.6 | 3.2 | 0.00 | 0.00 | 0.00 | 98 | 1009.5 |
| 20260507030304 | 12 | 341 | 1.6 | 3.2 | 0.00 | 0.00 | 0.00 | 98 | 1009.5 |
| 20260507025704 | 12 | 334 | 3.2 | 3.2 | 0.00 | 0.00 | 0.00 | 98 | 1009.5 |
| 20260507025403 | 12 | 337 | 3.2 | 3.2 | 0.00 | 0.00 | 0.00 | 98 | 1009.5 |
| 20260507025104 | 12 | 343 | 3.2 | 3.2 | 0.00 | 0.00 | 0.00 | 98 | 1009.5 |
| 20260507024803 | 12 | 342 | 1.6 | 3.2 | 0.00 | 0.00 | 0.00 | 98 | 1009.5 |